FW7729 Weather Reports


Display with metric or nautical units.
time (UTC)temp
F
wind
direction
speed
MPH
gust
MPH
rain 1hr
in
rain 24hr
in
rain mn
in
humidity
%
barometer
mb
20260901195150 90 332 1.0 0.0 0.00 0.00 0.00 77 1014.0
20260901194046 89 299 1.0 0.0 0.00 0.00 0.00 78 1014.1
20260901193512 89 295 0.0 0.0 0.00 0.00 0.00 79 1014.2
20260901192938 89 295 0.0 0.0 0.00 0.00 0.00 79 1014.3
20260901192404 89 295 0.0 0.0 0.00 0.00 0.00 79 1014.4
20260901191300 89 295 1.0 0.0 0.00 0.00 0.00 77 1014.6
20260901190156 90 297 0.0 0.0 0.00 0.00 0.00 76 1014.9
20260901185622 90 297 0.0 0.0 0.00 0.00 0.00 75 1014.9
20260901185048 90 287 0.0 0.0 0.00 0.00 0.00 75 1015.0
20260901183413 90 268 1.0 0.0 0.00 0.00 0.00 75 1014.9
20260901182309 90 264 1.0 0.0 0.00 0.00 0.00 75 1014.7
20260901181735 89 270 0.0 0.0 0.00 0.00 0.00 75 1014.6
20260901175531 89 270 1.0 0.0 0.00 0.00 0.00 77 1014.7
20260901174957 89 273 1.0 0.0 0.00 0.00 0.00 77 1014.7
20260901174423 89 272 1.0 0.0 0.00 0.00 0.00 78 1014.8
20260901173319 89 270 0.0 0.0 0.00 0.00 0.00 79 1014.7
20260901172215 89 270 0.0 0.0 0.00 0.00 0.00 77 1014.7
20260901170010 89 257 1.0 0.0 0.00 0.00 0.00 78 1015.0
20260901165436 89 265 0.0 0.0 0.00 0.00 0.00 78 1015.1
20260901164332 88 274 0.0 0.0 0.00 0.00 0.00 80 1015.5
20260901163757 88 274 0.0 0.0 0.00 0.00 0.00 80 1015.3
20260901163224 88 274 0.0 0.0 0.00 0.00 0.00 80 1015.4
20260901162649 88 274 0.0 0.0 0.00 0.00 0.00 80 1015.4
20260901162115 88 274 0.0 0.0 0.00 0.00 0.00 80 1015.5
20260901161541 89 274 1.0 0.0 0.00 0.00 0.00 78 1015.5
20260901155907 88 215 1.0 0.0 0.00 0.00 0.00 81 1015.6
20260901154803 88 212 1.0 0.0 0.00 0.00 0.00 82 1015.6
20260901154229 87 212 1.0 0.0 0.00 0.00 0.00 82 1015.8
20260901153655 87 212 1.0 0.0 0.00 0.00 0.00 82 1015.9
20260901153121 87 212 1.0 0.0 0.00 0.00 0.00 82 1016.0
20260901152547 86 212 0.0 0.0 0.00 0.00 0.00 84 1016.0
20260901151443 85 170 0.0 0.0 0.00 0.00 0.00 84 1016.2
20260901150909 85 170 0.0 0.0 0.00 0.00 0.00 86 1016.2
20260901145805 84 170 0.0 0.0 0.00 0.00 0.00 88 1016.3
20260901145230 84 170 0.0 0.0 0.00 0.00 0.00 87 1016.2
20260901144657 84 170 0.0 0.0 0.00 0.00 0.00 87 1016.2
20260901143552 83 170 0.0 0.0 0.00 0.00 0.00 88 1016.3
20260901143018 83 170 0.0 0.0 0.00 0.00 0.00 89 1016.2
20260901142444 82 170 0.0 0.0 0.00 0.00 0.00 91 1016.2
20260901141910 82 170 0.0 0.0 0.00 0.00 0.00 91 1016.3
20260901141336 82 170 0.0 0.0 0.00 0.00 0.00 92 1016.3
20260901140802 82 170 0.0 0.0 0.00 0.00 0.00 92 1016.4
20260901140228 82 169 0.0 0.0 0.00 0.00 0.00 92 1016.3
20260901135654 81 170 0.0 0.0 0.00 0.00 0.00 91 1016.5
20260901134550 81 80 0.0 0.0 0.00 0.00 0.00 94 1016.3
20260901133446 80 80 0.0 0.0 0.00 0.00 0.00 96 1016.3
20260901132912 79 80 0.0 0.0 0.00 0.00 0.00 97 1016.3
20260901131808 78 80 0.0 0.0 0.00 0.00 0.00 10 1016.4
20260901131234 77 80 0.0 0.0 0.00 0.00 0.00 10 1016.5
20260901130700 76 80 0.0 0.0 0.00 0.00 0.00 10 1016.7
20260901130126 76 80 0.0 0.0 0.00 0.00 0.00 10 1016.7
20260901125552 76 80 0.0 0.0 0.00 0.00 0.00 10 1016.7
20260901125018 76 81 0.0 0.0 0.00 0.00 0.00 10 1016.7
20260901124444 75 80 0.0 0.0 0.00 0.00 0.00 10 1016.7
20260901123910 75 80 0.0 0.0 0.00 0.00 0.00 10 1016.8
20260901123335 75 80 0.0 0.0 0.00 0.00 0.00 10 1016.9
20260901122231 75 80 0.0 0.0 0.00 0.00 0.00 10 1016.9
20260901121658 75 80 0.0 0.0 0.00 0.00 0.00 10 1016.9
20260901121123 75 80 0.0 0.0 0.00 0.00 0.00 10 1016.8
20260901114919 75 80 0.0 0.0 0.00 0.00 0.00 10 1016.5
20260901113815 75 80 0.0 0.0 0.00 0.00 0.00 10 1016.3
20260901113241 75 80 0.0 0.0 0.00 0.00 0.00 10 1016.3
20260901112707 75 80 0.0 0.0 0.00 0.00 0.00 10 1016.1
20260901111603 75 80 0.0 0.0 0.00 0.00 0.00 10 1016.2
20260901111029 74 80 0.0 0.0 0.00 0.00 0.00 10 1016.2
20260901110455 75 80 0.0 0.0 0.00 0.00 0.00 10 1016.3
20260901105921 75 80 0.0 0.0 0.00 0.00 0.00 10 1016.1
20260901104817 74 80 0.0 0.0 0.00 0.00 0.00 10 1016.2
20260901104243 74 80 0.0 0.0 0.00 0.00 0.00 10 1016.2
20260901103709 74 81 0.0 0.0 0.00 0.00 0.00 10 1016.0
20260901103135 74 80 0.0 0.0 0.00 0.00 0.00 10 1016.0
20260901102031 75 80 0.0 0.0 0.00 0.00 0.00 10 1015.9
20260901095257 74 80 0.0 0.0 0.00 0.00 0.00 10 1016.0
20260901094723 74 80 0.0 0.0 0.00 0.00 0.00 10 1015.9
20260901093619 75 80 0.0 0.0 0.00 0.00 0.00 10 1015.9
20260901092515 75 80 0.0 0.0 0.00 0.00 0.00 10 1015.9
20260901085210 75 80 0.0 0.0 0.00 0.00 0.00 10 1016.1
20260901084106 75 80 0.0 0.0 0.00 0.00 0.00 10 1016.1
20260901083532 75 80 0.0 0.0 0.00 0.00 0.00 10 1016.2
20260901082958 75 80 0.0 0.0 0.00 0.00 0.00 10 1016.2
20260901082424 75 80 0.0 0.0 0.00 0.00 0.00 10 1016.1
20260901081850 75 80 0.0 0.0 0.00 0.00 0.00 10 1016.1
20260901081316 75 80 0.0 0.0 0.00 0.00 0.00 10 1016.1
20260901075642 75 80 0.0 0.0 0.00 0.00 0.00 10 1016.0
20260901075108 75 80 0.0 0.0 0.00 0.00 0.00 10 1016.1
20260901074534 75 80 0.0 0.0 0.00 0.00 0.00 10 1016.1
20260901072330 74 80 0.0 0.0 0.00 0.00 0.00 10 1016.4
20260901071226 74 80 0.0 0.0 0.00 0.00 0.00 10 1016.4
20260901070652 74 80 0.0 0.0 0.00 0.00 0.00 10 1016.4
20260901070118 74 80 0.0 0.0 0.00 0.00 0.00 10 1016.5
20260901065013 74 80 0.0 0.0 0.00 0.00 0.00 10 1016.6
20260901064440 74 80 0.0 0.0 0.00 0.00 0.00 10 1016.6
20260901063906 74 80 0.0 0.0 0.00 0.00 0.00 10 1016.7
20260901062801 74 80 0.0 0.0 0.00 0.00 0.00 10 1016.9
20260901062227 74 80 0.0 0.0 0.00 0.00 0.00 10 1016.8
20260901061653 74 80 0.0 0.0 0.00 0.00 0.00 10 1016.9
20260901060549 74 80 0.0 0.0 0.00 0.00 0.00 10 1016.7
20260901060015 74 80 0.0 0.0 0.00 0.00 0.00 10 1016.8
20260901055441 74 80 0.0 0.0 0.00 0.00 0.00 10 1016.7
20260901054337 74 80 0.0 0.0 0.00 0.00 0.00 10 1017.0
20260901053803 74 80 0.0 0.0 0.00 0.00 0.00 10 1017.1
20260901053229 74 80 0.0 0.0 0.00 0.00 0.00 10 1017.2
20260901051025 74 80 0.0 0.0 0.00 0.00 0.00 10 1017.3
20260901050451 74 80 0.0 0.0 0.00 0.00 0.00 10 1017.3
20260901045917 74 80 0.0 0.0 0.00 0.00 0.00 10 1017.4
20260901045343 74 80 0.0 0.0 0.00 0.00 0.00 10 1017.5
20260901044809 74 80 0.0 0.0 0.00 0.00 0.00 10 1017.6
20260901044235 74 80 0.0 0.0 0.00 0.00 0.00 10 1017.6
20260901043131 74 80 0.0 0.0 0.00 0.00 0.00 10 1017.7
20260901042556 74 80 0.0 0.0 0.00 0.00 0.00 10 1017.7
20260901042023 74 80 0.0 0.0 0.00 0.00 0.00 10 1017.8
20260901041448 74 80 0.0 0.0 0.00 0.00 0.00 10 1017.7
20260901040915 74 80 0.0 0.0 0.00 0.00 0.00 10 1017.7
20260901035810 74 80 0.0 0.0 0.00 0.00 0.00 10 1017.8
20260901035236 74 80 0.0 0.0 0.00 0.00 0.00 10 1017.7
20260901034703 74 80 0.0 0.0 0.00 0.00 0.00 10 1017.8
20260901034129 74 80 0.0 0.0 0.00 0.00 0.00 10 1017.7
20260901033024 74 80 0.0 0.0 0.00 0.00 0.00 10 1017.6
20260901032450 74 80 0.0 0.0 0.00 0.00 0.00 10 1017.7
20260901031916 74 80 0.0 0.0 0.00 0.00 0.00 10 1017.8
20260901030812 75 80 0.0 0.0 0.00 0.00 0.00 10 1017.7
20260901030238 75 80 0.0 0.0 0.00 0.00 0.00 10 1017.8
20260901024604 75 80 0.0 0.0 0.00 0.00 0.00 10 1017.8
20260901024030 75 80 0.0 0.0 0.00 0.00 0.00 10 1017.8
20260901023456 75 79 0.0 0.0 0.00 0.00 0.00 10 1017.8
20260901022352 75 80 0.0 0.0 0.00 0.00 0.00 10 1017.8
20260901021248 75 80 0.0 0.0 0.00 0.00 0.00 10 1017.7
20260901015614 75 80 0.0 0.0 0.00 0.00 0.00 10 1017.8
20260901014510 76 80 0.0 0.0 0.00 0.00 0.00 10 1017.7
20260901013936 76 80 0.0 0.0 0.00 0.00 0.00 10 1017.7
20260901013402 76 80 0.0 0.0 0.00 0.00 0.00 10 1017.6
20260901011727 76 80 0.0 0.0 0.00 0.00 0.00 10 1017.5
20260901011153 76 80 0.0 0.0 0.00 0.00 0.00 10 1017.5
20260901010619 77 80 0.0 0.0 0.00 0.00 0.00 10 1017.4
20260901010045 77 80 0.0 0.0 0.00 0.00 0.00 10 1017.4
20260901005512 77 80 0.0 0.0 0.00 0.00 0.00 10 1017.3
20260901004407 77 80 0.0 0.0 0.00 0.00 0.00 10 1017.1
20260901003833 77 80 0.0 0.0 0.00 0.00 0.00 10 1017.0
20260901003259 77 80 0.0 0.0 0.00 0.43 0.00 10 1017.2
20260901002725 77 80 0.0 0.0 0.00 0.43 0.00 10 1017.1
20260901002151 77 80 0.0 0.0 0.00 0.43 0.00 10 1017.1
20260901001047 78 80 0.0 0.0 0.00 0.43 0.00 10 1016.9
20260901000513 78 80 0.0 0.0 0.00 0.43 0.00 10 1017.1
20260831235939 78 80 0.0 0.0 0.00 0.43 0.00 99 1017.2
20260831234305 79 80 0.0 0.0 0.00 0.43 0.00 98 1017.1
20260831233731 79 80 0.0 0.0 0.00 0.43 0.00 98 1017.2
20260831233157 79 80 0.0 0.0 0.00 0.43 0.00 97 1017.2
20260831231523 80 80 0.0 0.0 0.00 0.43 0.00 96 1017.2
20260831230949 80 80 0.0 0.0 0.00 0.43 0.00 97 1017.3
20260831225845 80 80 0.0 0.0 0.00 0.43 0.00 97 1017.3
20260831225311 81 80 0.0 0.0 0.00 0.43 0.00 97 1017.3
20260831224737 81 80 0.0 0.0 0.00 0.43 0.00 96 1017.4
20260831223632 81 80 0.0 0.0 0.00 0.43 0.00 97 1017.5
20260831223059 81 80 0.0 0.0 0.00 0.43 0.00 96 1017.5
20260831222524 81 80 0.0 0.0 0.00 0.43 0.00 96 1017.5
20260831221950 81 80 0.0 0.0 0.00 0.43 0.00 95 1017.7
20260831221416 81 80 0.0 0.0 0.00 0.43 0.00 95 1017.7
20260831220842 81 80 0.0 0.0 0.00 0.43 0.00 95 1017.8
20260831215738 81 81 0.0 0.0 0.00 0.43 0.00 95 1017.8
20260831215204 81 80 0.0 0.0 0.00 0.43 0.00 94 1017.7
20260831213530 81 80 0.0 0.0 0.00 0.43 0.00 94 1017.7
20260831212956 81 80 0.0 0.0 0.00 0.43 0.00 94 1017.7
20260831212422 81 73 0.0 0.0 0.00 0.43 0.00 94 1017.7
20260831211848 81 73 0.0 0.0 0.00 0.43 0.00 94 1017.8
20260831210744 82 73 0.0 0.0 0.00 0.43 0.00 93 1017.8
20260831205640 82 73 0.0 0.0 0.00 0.43 0.00 92 1017.7
20260831205106 82 73 0.0 0.0 0.00 0.43 0.00 93 1017.7
20260831204532 82 73 0.0 0.0 0.00 0.43 0.00 92 1017.6
20260831203428 82 73 0.0 0.0 0.00 0.43 0.00 93 1017.8
20260831202854 83 73 0.0 0.0 0.00 0.43 0.00 92 1017.7
20260831201220 83 72 0.0 0.0 0.00 0.43 0.00 91 1017.7